When you browse on this site, cookies collect data to enhance your experience and personalize the content and advertising you see.
Visit our Privacy Policy to learn more. By continuing to use the site, you agree to this use of cookies and data.
  • In Deutschland
  • Länderverzeichnis
  • Für 7 Tage
  • Wassertemperatur
  • Wetterkarte
  • Widgets
  • user-avatar
    Anmelden

    Stündliche Wetter Tokareva

    Heute, 27 Februar, Donnerstag

    Zeit Temperatur Niederschläge Wind Luftdruck Luftfeuchtigkeit
    00:00 -8°C° 0.5 mm 5 m/S 725 mmHg 93%
    01:00 -8°C° 0.5 mm 5 m/S 726 mmHg 93%
    02:00 -8°C° 0.1 mm 6 m/S 727 mmHg 91%
    03:00 -6°C° 0.1 mm 6 m/S 728 mmHg 88%
    04:00 -5°C° 0 mm 5 m/S 729 mmHg 87%
    05:00 -6°C° 0 mm 6 m/S 730 mmHg 86%
    06:00 -8°C° 0 mm 6 m/S 731 mmHg 86%
    07:00 -9°C° 0 mm 6 m/S 732 mmHg 85%
    08:00 -8°C° 0 mm 5 m/S 733 mmHg 84%
    09:00 -8°C° 0 mm 5 m/S 733 mmHg 83%
    10:00 -7°C° 0 mm 5 m/S 734 mmHg 82%
    11:00 -6°C° 0 mm 5 m/S 734 mmHg 79%
    12:00 -4°C° 0 mm 4 m/S 735 mmHg 76%
    13:00 -3°C° 0 mm 4 m/S 735 mmHg 73%
    14:00 -3°C° 0 mm 4 m/S 736 mmHg 77%
    15:00 -3°C° 0 mm 4 m/S 736 mmHg 80%
    16:00 -1°C° 0 mm 3 m/S 736 mmHg 84%
    17:00 -2°C° 0 mm 3 m/S 737 mmHg 86%
    18:00 -5°C° 0 mm 3 m/S 737 mmHg 89%
    19:00 -5°C° 0 mm 2 m/S 738 mmHg 91%
    20:00 -5°C° 0 mm 2 m/S 738 mmHg 92%
    21:00 -4°C° 0 mm 2 m/S 738 mmHg 92%
    22:00 -4°C° 0 mm 2 m/S 739 mmHg 93%
    23:00 -4°C° 0 mm 2 m/S 739 mmHg 93%

    Morgen, 28 Februar, Freitag

    Zeit Temperatur Niederschläge Wind Luftdruck Luftfeuchtigkeit
    00:00 -3°C° 0 mm 2 m/S 739 mmHg 94%
    01:00 -2°C° 0 mm 2 m/S 740 mmHg 95%
    02:00 -2°C° 0 mm 2 m/S 740 mmHg 93%
    03:00 -2°C° 0 mm 3 m/S 740 mmHg 92%
    04:00 -2°C° 0 mm 3 m/S 740 mmHg 90%
    05:00 -2°C° 0 mm 3 m/S 740 mmHg 91%
    06:00 -3°C° 0 mm 2 m/S 740 mmHg 92%
    07:00 -4°C° 0 mm 2 m/S 740 mmHg 93%
    08:00 -3°C° 0.2 mm 2 m/S 740 mmHg 94%
    09:00 -2°C° 0.2 mm 3 m/S 740 mmHg 96%
    10:00 -1°C° 0.2 mm 3 m/S 740 mmHg 97%
    11:00 -1°C° 0.2 mm 3 m/S 740 mmHg 97%
    12:00 0°C° 0.2 mm 3 m/S 740 mmHg 98%
    13:00 0°C° 0.2 mm 3 m/S 740 mmHg 98%
    14:00 0°C° 0 mm 3 m/S 740 mmHg 97%
    15:00 +1°C° 0 mm 3 m/S 741 mmHg 95%
    16:00 +1°C° 0 mm 3 m/S 741 mmHg 93%
    17:00 0°C° 0 mm 3 m/S 741 mmHg 92%
    18:00 0°C° 0 mm 3 m/S 741 mmHg 92%
    19:00 -1°C° 0 mm 3 m/S 742 mmHg 91%
    20:00 -1°C° 0 mm 2 m/S 742 mmHg 91%
    21:00 -2°C° 0 mm 2 m/S 742 mmHg 92%
    22:00 -1°C° 0 mm 1 m/S 742 mmHg 92%
    23:00 -1°C° 0 mm 1 m/S 742 mmHg 92%

    übermorgen, 29 Februar, Samstag

    Zeit Temperatur Niederschläge Wind Luftdruck Luftfeuchtigkeit
    00:00 -3°C° 0 mm 2 m/S 742 mmHg 92%
    01:00 -3°C° 0 mm 2 m/S 742 mmHg 92%
    02:00 -2°C° 0 mm 2 m/S 742 mmHg 92%
    03:00 -1°C° 0 mm 2 m/S 742 mmHg 91%
    04:00 -1°C° 0 mm 3 m/S 741 mmHg 91%
    05:00 -2°C° 0 mm 3 m/S 741 mmHg 91%
    06:00 -4°C° 0 mm 3 m/S 740 mmHg 90%
    07:00 -5°C° 0 mm 4 m/S 740 mmHg 90%
    08:00 -5°C° 0 mm 5 m/S 739 mmHg 85%
    09:00 -4°C° 0 mm 5 m/S 739 mmHg 79%
    10:00 -3°C° 0 mm 6 m/S 739 mmHg 74%
    11:00 -3°C° 0 mm 6 m/S 738 mmHg 74%
    12:00 -2°C° 0 mm 6 m/S 738 mmHg 74%
    13:00 -2°C° 0 mm 6 m/S 738 mmHg 74%
    14:00 -2°C° 0 mm 6 m/S 738 mmHg 75%
    15:00 -2°C° 0 mm 5 m/S 738 mmHg 77%
    16:00 -2°C° 0 mm 5 m/S 737 mmHg 79%
    17:00 -3°C° 0 mm 4 m/S 738 mmHg 82%
    18:00 -4°C° 0 mm 4 m/S 738 mmHg 85%
    19:00 -5°C° 0 mm 3 m/S 738 mmHg 89%
    20:00 -5°C° 0 mm 3 m/S 738 mmHg 90%
    21:00 -5°C° 0 mm 3 m/S 739 mmHg 91%
    22:00 -5°C° 0 mm 3 m/S 739 mmHg 92%
    23:00 -5°C° 0 mm 3 m/S 739 mmHg 92%

    1 März, Sonntag

    Zeit Temperatur Niederschläge Wind Luftdruck Luftfeuchtigkeit
    00:00 -4°C° 0 mm 2 m/S 740 mmHg 92%
    01:00 -4°C° 0 mm 2 m/S 740 mmHg 92%
    02:00 -4°C° 0 mm 2 m/S 740 mmHg 92%
    03:00 -4°C° 0 mm 2 m/S 741 mmHg 92%
    04:00 -5°C° 0 mm 2 m/S 741 mmHg 92%
    05:00 -5°C° 0 mm 2 m/S 741 mmHg 92%
    06:00 -5°C° 0 mm 2 m/S 741 mmHg 91%
    07:00 -5°C° 0 mm 2 m/S 742 mmHg 91%
    08:00 -4°C° 0 mm 2 m/S 742 mmHg 89%
    09:00 -4°C° 0 mm 2 m/S 742 mmHg 87%
    10:00 -3°C° 0 mm 2 m/S 743 mmHg 85%
    11:00 -2°C° 0 mm 2 m/S 743 mmHg 84%
    12:00 -2°C° 0 mm 2 m/S 743 mmHg 83%
    13:00 -1°C° 0 mm 2 m/S 743 mmHg 82%
    14:00 -1°C° 0 mm 2 m/S 743 mmHg 83%
    15:00 -1°C° 0 mm 2 m/S 743 mmHg 83%
    16:00 -2°C° 0 mm 2 m/S 743 mmHg 84%
    17:00 -3°C° 0 mm 2 m/S 744 mmHg 86%
    18:00 -4°C° 0 mm 2 m/S 744 mmHg 88%
    19:00 -5°C° 0 mm 2 m/S 744 mmHg 91%
    20:00 -6°C° 0 mm 2 m/S 745 mmHg 92%
    21:00 -7°C° 0 mm 2 m/S 745 mmHg 92%
    22:00 -7°C° 0 mm 2 m/S 746 mmHg 93%
    23:00 -8°C° 0 mm 2 m/S 746 mmHg 93%

    2 März, Montag

    Zeit Temperatur Niederschläge Wind Luftdruck Luftfeuchtigkeit
    00:00 -9°C° 0 mm 2 m/S 746 mmHg 93%
    01:00 -9°C° 0 mm 2 m/S 746 mmHg 93%
    02:00 -9°C° 0 mm 2 m/S 747 mmHg 93%
    03:00 -10°C° 0 mm 2 m/S 747 mmHg 94%
    04:00 -10°C° 0 mm 2 m/S 747 mmHg 94%
    05:00 -10°C° 0 mm 2 m/S 748 mmHg 94%
    06:00 -12°C° 0 mm 2 m/S 748 mmHg 93%
    07:00 -12°C° 0 mm 2 m/S 748 mmHg 93%
    08:00 -8°C° 0 mm 1 m/S 748 mmHg 88%
    09:00 -6°C° 0 mm 1 m/S 749 mmHg 84%
    10:00 -4°C° 0 mm 1 m/S 749 mmHg 80%
    11:00 -2°C° 0 mm 1 m/S 749 mmHg 77%
    12:00 -1°C° 0 mm 1 m/S 749 mmHg 74%
    13:00 0°C° 0 mm 1 m/S 749 mmHg 71%
    14:00 0°C° 0 mm 1 m/S 749 mmHg 73%
    15:00 0°C° 0 mm 1 m/S 748 mmHg 76%
    16:00 0°C° 0 mm 1 m/S 748 mmHg 79%
    17:00 -2°C° 0 mm 1 m/S 748 mmHg 80%
    18:00 -3°C° 0 mm 1 m/S 748 mmHg 81%
    19:00 -6°C° 0 mm 1 m/S 748 mmHg 83%
    20:00 -7°C° 0 mm 1 m/S 748 mmHg 83%
    21:00 -7°C° 0 mm 1 m/S 748 mmHg 83%
    22:00 -8°C° 0 mm 0 m/S 748 mmHg 83%
    23:00 -8°C° 0 mm 1 m/S 748 mmHg 83%

    3 März, Dienstag

    Zeit Temperatur Niederschläge Wind Luftdruck Luftfeuchtigkeit
    00:00 -8°C° 0 mm 1 m/S 748 mmHg 83%
    01:00 -8°C° 0 mm 1 m/S 748 mmHg 83%
    02:00 -9°C° 0 mm 1 m/S 748 mmHg 82%
    03:00 -9°C° 0 mm 1 m/S 748 mmHg 81%
    04:00 -9°C° 0 mm 1 m/S 748 mmHg 80%
    05:00 -9°C° 0 mm 1 m/S 748 mmHg 79%
    06:00 -9°C° 0 mm 1 m/S 748 mmHg 78%
    07:00 -9°C° 0 mm 1 m/S 748 mmHg 77%
    08:00 -7°C° 0 mm 1 m/S 748 mmHg 74%
    09:00 -4°C° 0 mm 1 m/S 748 mmHg 70%
    10:00 -2°C° 0 mm 1 m/S 748 mmHg 67%
    11:00 -1°C° 0 mm 1 m/S 748 mmHg 67%
    12:00 0°C° 0 mm 1 m/S 748 mmHg 67%
    13:00 +1°C° 0 mm 1 m/S 748 mmHg 67%
    14:00 +1°C° 0 mm 1 m/S 747 mmHg 70%
    15:00 +1°C° 0 mm 1 m/S 747 mmHg 73%
    16:00 +1°C° 0 mm 1 m/S 747 mmHg 76%
    17:00 -1°C° 0 mm 1 m/S 747 mmHg 79%
    18:00 -4°C° 0 mm 2 m/S 747 mmHg 82%
    19:00 -6°C° 0 mm 2 m/S 747 mmHg 85%
    20:00 -6°C° 0 mm 2 m/S 747 mmHg 85%
    21:00 -7°C° 0 mm 2 m/S 747 mmHg 85%
    22:00 -8°C° 0 mm 3 m/S 748 mmHg 85%
    23:00 -8°C° 0 mm 3 m/S 748 mmHg 87%
    Mehr zeigen